(455) Bruchsalia
ephemeris date magn radius delta ra dec elong phase
Opposition13 Jul 202611.22.094 AU1.093 AU19h45m-34°59'166.4°6.6°
Today26 Aug 202611.91.987 AU1.174 AU19h15m-38°34'130.7°22.7°
(455) Bruchsalia - 2026-08-26
astro.vanbuitenen.nl


 
-1 year
-1 month
-1 day
Now
+1 day
+1 month
+1 year

The interactive orbit chart above shows the body's path through the solar system and its position at the given date. Green and blue lines are shown perpendicular to the ecliptic plane: Green if the path is above the ecliptic plane, blue if it is below. (Left-click and drag to rotate the view; Right-click and drag to move the view; Use scroll wheel to zoom in our out.)

The orbital elements of Bruchsalia are:

            e (Eccentricity)                : 0.2943201
            a (Semimajor axis)              : 2.6564184
            i (Inclination)                 : 12.01664
            Ω (Longitude of ascending node) : 76.06977
            ω (Argument of perihelion)      : 273.34337
            M (Mean anomaly)                : 319.82968
            Epoch                           : 2026 Jun 09

            L (Longitude of perihelion)     : -10.51213
            B (Latitude of perihelion)      : -11.99588
            P (Orbital period in years)     : 4.33            
        

The light curve chart below shows the estimated development of the minor planet's magnitude.


The all-sky chart below shows the path of the minor planet over the same period as the light curve. The current position is marked yellow.





The following chart shows the path of the minor planet in the next few days. The field of view is optimized for (~10x50) binoculars and finderscopes.




Ephemerides:
Date       Time       RA (2000)    DEC (2000)    delta   radius  elong  phase   PA    magn
2026-08-26 00:00 UT   19 15 17.6   -38 34 19     1.174    1.987  130.7   22.7    68   11.9 
2026-08-26 11:43 UT   19 15 18.2   -38 34 03     1.177    1.986  130.3   22.8    68   11.9 
2026-08-27 00:00 UT   19 15 19.6   -38 33 43     1.180    1.985  129.9   23.0    68   11.9 
2026-08-28 00:00 UT   19 15 24.3   -38 32 55     1.185    1.983  129.0   23.3    69   11.9 
2026-08-29 00:00 UT   19 15 31.5   -38 31 54     1.191    1.981  128.1   23.7    69   11.9 
2026-08-30 00:00 UT   19 15 41.4   -38 30 43     1.197    1.979  127.2   24.0    70   11.9 
2026-08-31 00:00 UT   19 15 54.0   -38 29 20     1.203    1.977  126.4   24.3    70   12.0 
2026-09-01 00:00 UT   19 16 09.1   -38 27 46     1.209    1.975  125.5   24.6    70   12.0 
2026-09-02 00:00 UT   19 16 26.8   -38 26 02     1.216    1.973  124.7   24.9    71   12.0 
2026-09-03 00:00 UT   19 16 47.1   -38 24 06     1.222    1.971  123.8   25.2    71   12.0 
2026-09-04 00:00 UT   19 17 10.0   -38 22 01     1.228    1.969  123.0   25.4    71   12.0 
2026-09-05 00:00 UT   19 17 35.4   -38 19 45     1.235    1.967  122.2   25.7    72   12.0 
2026-09-06 00:00 UT   19 18 03.4   -38 17 19     1.241    1.965  121.4   26.0    72   12.1 
2026-09-07 00:00 UT   19 18 34.0   -38 14 43     1.248    1.963  120.5   26.2    72   12.1 
2026-09-08 00:00 UT   19 19 07.0   -38 11 58     1.255    1.961  119.7   26.5    73   12.1 
2026-09-09 00:00 UT   19 19 42.6   -38 09 02     1.262    1.959  118.9   26.7    73   12.1 
2026-09-10 00:00 UT   19 20 20.6   -38 05 58     1.269    1.957  118.2   27.0    73   12.1 
2026-09-11 00:00 UT   19 21 01.1   -38 02 44     1.276    1.955  117.4   27.2    73   12.1 
2026-09-12 00:00 UT   19 21 44.0   -37 59 21     1.283    1.953  116.6   27.4    74   12.2 
2026-09-13 00:00 UT   19 22 29.3   -37 55 49     1.290    1.951  115.8   27.7    74   12.2 
2026-09-14 00:00 UT   19 23 17.0   -37 52 08     1.297    1.950  115.1   27.9    74   12.2 
2026-09-15 00:00 UT   19 24 07.0   -37 48 18     1.305    1.948  114.3   28.1    74   12.2 
2026-09-16 00:00 UT   19 24 59.4   -37 44 20     1.312    1.946  113.6   28.3    74   12.2 
2026-09-17 00:00 UT   19 25 54.0   -37 40 13     1.319    1.944  112.8   28.5    75   12.2 
2026-09-18 00:00 UT   19 26 50.8   -37 35 57     1.327    1.942  112.1   28.6    75   12.3 
2026-09-19 00:00 UT   19 27 49.8   -37 31 33     1.334    1.941  111.4   28.8    75   12.3 
2026-09-20 00:00 UT   19 28 51.0   -37 27 01     1.342    1.939  110.6   29.0    75   12.3 
2026-09-21 00:00 UT   19 29 54.3   -37 22 21     1.350    1.937  109.9   29.2    75   12.3 
2026-09-22 00:00 UT   19 30 59.7   -37 17 33     1.357    1.936  109.2   29.3    75   12.3 
2026-09-23 00:00 UT   19 32 07.1   -37 12 36     1.365    1.934  108.5   29.5    75   12.3 
2026-09-24 00:00 UT   19 33 16.5   -37 07 31     1.373    1.932  107.8   29.6    76   12.3 
2026-09-25 00:00 UT   19 34 27.8   -37 02 19     1.381    1.931  107.1   29.8    76   12.4 


    Terminology:
            
    delta:  distance between minor planet and earth in AU
    radius: distance between minor planet and sun in AU
    magn:   magnitude (brightness) estimate    
    ra:     right ascension in hours (24h = 360deg)
    dec:    declination in degrees
    elong:  elongation in degrees (angle sun-earth-minor planet)    
    phase:  phase angle in degrees (angle sun-minor planet-earth)        
    AU:     Astronomical Unit (mean distance between earth and sun: 149597870.7 km
    

Orbital elements provided by the MPC (Minor Planet Center).
Calculations by a modified version of AAPlus, a C# implementation of the AA+ project by PJ Naughter from the algorithms presented in the book "Astronomical Algorithms" by Jean Meeus.
NGC2000 dso catalog and star labels from VizieR as provided by the Strasbourg astronomical Data Center.
Tycho2 catalog from the ESO archive.